This is the latest recevied weather packets stored in our database for station/object DC9PA-13. If no packets are shown the sender has not sent any weather packets the latest 10 day(s).
| Time | Temp. | Humidity | Pressure | Rain* | Wind** | Luminosity | Snow |
|---|---|---|---|---|---|---|---|
| 1777968512 | 22.22° C | 54% | 994.2 hPa | 0 mm | - | - | - |
| 1777968481 | 22.22° C | 53% | 994.2 hPa | 0 mm | - | - | - |
| 1777968451 | 21.67° C | 57% | 994.2 hPa | 0 mm | - | - | - |
| 1777968421 | 21.67° C | 57% | 994.2 hPa | 0 mm | - | - | - |
| 1777968391 | 21.67° C | 55% | 994.2 hPa | 0 mm | - | - | - |
| 1777968361 | 21.67° C | 55% | 994 hPa | 0 mm | - | - | - |
| 1777968331 | 21.67° C | 55% | 994 hPa | 0 mm | - | - | - |
| 1777968301 | 21.67° C | 55% | 994 hPa | 0 mm | - | - | - |
| 1777968271 | 21.67° C | 54% | 994 hPa | 0 mm | - | - | - |
| 1777968211 | 21.67° C | 58% | 994 hPa | 0 mm | - | - | - |
| 1777968203 | 21.11° C | 57% | 994 hPa | 0 mm | - | - | - |
| 1777968142 | 21.11° C | 59% | 994 hPa | 0 mm | - | - | - |
| 1777968091 | 21.11° C | 57% | 994 hPa | 0 mm | - | - | - |
| 1777968061 | 21.11° C | 58% | 994.4 hPa | 0 mm | - | - | - |
| 1777968033 | 21.11° C | 57% | 994.4 hPa | 0 mm | - | - | - |
| 1777968022 | 21.11° C | 57% | 994.4 hPa | 0 mm | - | - | - |
| 1777967971 | 21.11° C | 58% | 994.4 hPa | 0 mm | - | - | - |
| 1777967941 | 21.11° C | 58% | 994.4 hPa | 0 mm | - | - | - |
| 1777967851 | 20.56° C | 59% | 994.4 hPa | 0 mm | - | - | - |
| 1777967761 | 20.56° C | 59% | 994.1 hPa | 0 mm | - | - | - |
| 1777967191 | 20° C | 61% | 994.2 hPa | 0 mm | - | - | - |
| 1777967152 | 20° C | 60% | 994.3 hPa | 0 mm | - | - | - |
| 1777967062 | 20° C | 62% | 994.3 hPa | 0 mm | - | - | - |
| 1777966681 | 19.44° C | 64% | 994.3 hPa | 0 mm | - | - | - |
| 1777966651 | 19.44° C | 64% | 994.3 hPa | 0 mm | - | - | - |
* Rain since midnight (hover to see other rain measurements)
** Current wind speed in m/s (hover to see current wind gust speed)